EW5196 Weather Reports


time (UTC)temp
F
wind
direction
speed
knots
gust
knots
rain 1hr
in
rain 24hr
in
rain mn
in
humidity
%
barometer
mb
20260509044843 54 151 1.7 2.6 0.00 0.00 0.00 76 1015.1
20260509044341 54 157 1.7 1.7 0.00 0.00 0.00 72 1015.2
20260509043837 54 150 1.7 1.7 0.00 0.00 0.00 71 1015.3
20260509043333 55 156 1.7 1.7 0.00 0.00 0.00 73 1015.3
20260509042829 55 148 1.7 1.7 0.00 0.00 0.00 67 1015.1
20260509042325 55 139 0.9 1.7 0.00 0.00 0.00 69 1015.4
20260509041822 55 152 1.7 1.7 0.00 0.00 0.00 70 1015.3
20260509041319 56 152 1.7 1.7 0.00 0.00 0.00 74 1015.4
20260509040818 56 143 1.7 1.7 0.00 0.00 0.00 71 1015.5
20260509040315 56 144 1.7 1.7 0.00 0.00 0.00 68 1015.4
20260509035812 56 152 1.7 1.7 0.00 0.00 0.00 68 1015.3
20260509035309 56 149 1.7 1.7 0.00 0.00 0.00 67 1015.3
20260509034805 56 152 1.7 1.7 0.00 0.00 0.00 65 1015.6
20260509034303 56 157 0.9 1.7 0.00 0.00 0.00 65 1015.5
20260509033759 56 146 1.7 1.7 0.00 0.00 0.00 67 1015.7
20260509033257 56 149 1.7 1.7 0.00 0.00 0.00 69 1015.7
20260509032754 56 138 0.9 1.7 0.00 0.00 0.00 73 1015.6
20260509032250 56 145 1.7 1.7 0.00 0.00 0.00 66 1015.8
20260509031748 56 146 1.7 1.7 0.00 0.00 0.00 69 1016.1
20260509031245 56 144 0.9 1.7 0.00 0.00 0.00 70 1015.7
20260509030743 56 162 1.7 1.7 0.00 0.00 0.00 66 1015.7
20260509030241 56 157 1.7 1.7 0.00 0.00 0.00 66 1015.9
20260509025737 56 161 1.7 1.7 0.00 0.00 0.00 63 1015.5
20260509025233 56 160 0.9 1.7 0.00 0.00 0.00 70 1015.5
20260509024728 56 161 0.9 1.7 0.00 0.00 0.00 70 1015.9
20260509024224 56 148 1.7 1.7 0.00 0.00 0.00 70 1015.6
20260509023722 56 139 0.9 1.7 0.00 0.00 0.00 71 1015.8
20260509023219 56 154 1.7 1.7 0.00 0.00 0.00 70 1015.8
20260509022715 56 160 1.7 1.7 0.00 0.00 0.00 68 1015.8
20260509022213 56 148 1.7 1.7 0.00 0.00 0.00 61 1015.8
20260509021710 56 161 1.7 1.7 0.00 0.00 0.00 60 1015.7
20260509021207 56 150 1.7 1.7 0.00 0.00 0.00 63 1015.7
20260509020705 56 144 1.7 1.7 0.00 0.00 0.00 68 1015.8
20260509020202 57 154 1.7 1.7 0.00 0.00 0.00 72 1015.7
20260509015700 57 144 1.7 1.7 0.00 0.00 0.00 69 1015.4
20260509015158 57 159 0.9 1.7 0.00 0.00 0.00 65 1015.3
20260509014654 58 149 1.7 1.7 0.00 0.00 0.00 68 1015.4
20260509014150 58 149 1.7 1.7 0.00 0.00 0.00 70 1015.7
20260509013648 58 139 1.7 1.7 0.00 0.00 0.00 61 1015.6
20260509013143 58 146 1.7 2.6 0.00 0.00 0.00 57 1015.5
20260509012640 58 150 1.7 1.7 0.00 0.00 0.00 64 1015.5
20260509012137 59 144 1.7 2.6 0.00 0.00 0.00 61 1015.5
20260509011635 59 144 1.7 1.7 0.00 0.00 0.00 61 1015.2
20260509011132 59 137 1.7 1.7 0.00 0.00 0.00 63 1015.2
20260509010630 59 136 1.7 1.7 0.00 0.00 0.00 64 1015.1
20260509010126 59 140 1.7 1.7 0.00 0.00 0.00 59 1015.1
20260509005624 60 149 1.7 1.7 0.00 0.00 0.00 65 1015.1
20260509005120 60 136 0.9 2.6 0.00 0.00 0.00 62 1015.0
20260509004616 60 145 1.7 1.7 0.00 0.00 0.00 56 1015.0
20260509004113 61 161 1.7 1.7 0.00 0.00 0.00 55 1015.3
20260509003611 61 147 1.7 1.7 0.00 0.00 0.00 66 1015.1
20260509003108 62 151 1.7 1.7 0.00 0.00 0.00 59 1015.1
20260509002606 62 133 0.9 1.7 0.00 0.00 0.00 50 1015.1
20260509002103 63 156 1.7 1.7 0.00 0.00 0.00 53 1015.1
20260509001600 63 157 1.7 1.7 0.00 0.00 0.00 48 1015.0
20260509001056 64 152 1.7 1.7 0.00 0.00 0.00 52 1014.9
20260509000555 64 148 1.7 1.7 0.00 0.00 0.00 46 1015.2
20260509000050 65 150 1.7 1.7 0.00 0.00 0.00 45 1015.0
20260508235548 65 152 1.7 1.7 0.00 0.00 0.00 43 1015.0
20260508235044 66 137 0.9 1.7 0.00 0.00 0.00 41 1015.0
20260508234542 66 139 1.7 1.7 0.00 0.00 0.00 43 1014.8
20260508234038 67 130 1.7 1.7 0.00 0.00 0.00 41 1014.4
20260508233538 67 155 1.7 1.7 0.00 0.00 0.00 42 1014.7
20260508233035 67 154 1.7 1.7 0.00 0.00 0.00 40 1014.6
20260508232531 68 123 0.9 1.7 0.00 0.00 0.00 38 1014.6
20260508232029 68 155 1.7 1.7 0.00 0.00 0.00 41 1014.5
20260508231526 68 148 1.7 2.6 0.00 0.00 0.00 38 1014.3
20260508231023 68 146 0.9 1.7 0.00 0.00 0.00 38 1014.3
20260508230520 69 151 1.7 2.6 0.00 0.00 0.00 38 1014.5
20260508230017 69 140 0.9 2.6 0.00 0.00 0.00 35 1014.2
20260508225514 69 165 0.9 1.7 0.00 0.00 0.00 35 1014.5
20260508225010 70 133 2.6 2.6 0.00 0.00 0.00 36 1014.4
20260508224508 70 118 0.9 1.7 0.00 0.00 0.00 33 1014.3
20260508224005 70 155 0.9 1.7 0.00 0.00 0.00 33 1014.2
20260508223503 70 161 1.7 1.7 0.00 0.00 0.00 33 1014.3
20260508223000 70 82 1.7 2.6 0.00 0.00 0.00 32 1014.5
20260508222458 71 104 0.9 1.7 0.00 0.00 0.00 31 1014.3
20260508221954 73 170 0.9 1.7 0.00 0.00 0.00 29 1014.4
20260508221450 73 177 0.9 1.7 0.00 0.00 0.00 31 1014.5
20260508220946 72 128 2.6 2.6 0.00 0.00 0.00 30 1014.5
20260508220443 72 143 1.7 1.7 0.00 0.00 0.00 32 1014.6
20260508215939 72 143 0.9 1.7 0.00 0.00 0.00 30 1014.7
20260508215436 73 130 1.7 1.7 0.00 0.00 0.00 31 1014.6
20260508214932 72 155 1.7 2.6 0.00 0.00 0.00 33 1014.7
20260508214431 71 156 0.9 1.7 0.00 0.00 0.00 30 1014.7
20260508213926 71 93 0.9 1.7 0.00 0.00 0.00 33 1014.8
20260508213424 71 180 1.7 1.7 0.00 0.00 0.00 30 1014.9
20260508212919 71 132 0.9 1.7 0.00 0.00 0.00 31 1014.8
20260508212416 71 40 0.9 1.7 0.00 0.00 0.00 31 1014.6
20260508211912 72 133 0.9 1.7 0.00 0.00 0.00 32 1014.7
20260508211408 72 136 1.7 2.6 0.00 0.00 0.00 32 1014.7
20260508210906 72 118 1.7 2.6 0.00 0.00 0.00 31 1014.7
20260508210402 73 179 1.7 1.7 0.00 0.00 0.00 30 1014.7
20260508205858 73 158 2.6 3.5 0.00 0.00 0.00 29 1014.6
20260508205355 72 133 2.6 2.6 0.00 0.00 0.00 31 1014.8
20260508204851 72 117 0.9 1.7 0.00 0.00 0.00 30 1014.8
20260508204348 71 184 1.7 3.5 0.00 0.00 0.00 30 1014.7
20260508203844 71 155 0.9 1.7 0.00 0.00 0.00 31 1014.9
20260508203340 72 265 0.0 2.6 0.00 0.00 0.00 31 1014.9
20260508202836 72 78 0.0 1.7 0.00 0.00 0.00 30 1014.8
20260508202334 72 174 1.7 2.6 0.00 0.00 0.00 33 1015.0
20260508201831 72 160 1.7 2.6 0.00 0.00 0.00 31 1014.9
20260508201328 72 165 0.0 2.6 0.00 0.00 0.00 33 1015.1
20260508200824 72 80 0.0 2.6 0.00 0.00 0.00 32 1014.9
20260508200321 72 251 1.7 2.6 0.00 0.00 0.00 29 1015.2
20260508195817 73 182 0.9 1.7 0.00 0.00 0.00 29 1015.0
20260508195314 73 177 0.9 1.7 0.00 0.00 0.00 30 1015.2
20260508194810 73 118 0.0 2.6 0.00 0.00 0.00 32 1015.2
20260508194307 72 160 0.9 1.7 0.00 0.00 0.00 31 1015.3
20260508193804 71 121 1.7 2.6 0.00 0.00 0.00 30 1015.5
20260508193301 73 79 0.0 2.6 0.00 0.00 0.00 30 1015.5
20260508192757 73 202 0.0 1.7 0.00 0.00 0.00 31 1015.6
20260508192254 72 210 0.9 3.5 0.00 0.00 0.00 33 1015.7
20260508191751 72 135 1.7 4.3 0.00 0.00 0.00 31 1015.8
20260508191249 71 74 0.0 1.7 0.00 0.00 0.00 30 1015.5
20260508190746 73 133 3.5 4.3 0.00 0.00 0.00 30 1015.9
20260508190242 73 205 4.3 4.3 0.00 0.00 0.00 29 1016.1
20260508185738 72 254 0.0 1.7 0.00 0.00 0.00 30 1016.3
20260508185236 71 176 0.9 0.9 0.00 0.00 0.00 33 1016.5
20260508184733 70 155 2.6 2.6 0.00 0.00 0.00 32 1016.1
20260508184230 71 180 0.0 1.7 0.00 0.00 0.00 30 1016.4
20260508183727 71 81 1.7 4.3 0.00 0.00 0.00 33 1016.5
20260508183223 71 135 1.7 2.6 0.00 0.00 0.00 31 1016.5
20260508182719 71 157 2.6 3.5 0.00 0.00 0.00 30 1016.4
20260508182216 70 128 0.9 3.5 0.00 0.00 0.00 33 1016.7
20260508181712 70 167 1.7 2.6 0.00 0.00 0.00 33 1016.9
20260508181209 69 104 1.7 4.3 0.00 0.00 0.00 33 1016.8
20260508180706 69 259 1.7 3.5 0.00 0.00 0.00 32 1016.6
20260508180203 69 144 2.6 3.5 0.00 0.00 0.00 35 1016.8
20260508175659 68 218 0.9 1.7 0.00 0.00 0.00 32 1016.8
20260508175156 69 352 0.0 1.7 0.00 0.00 0.00 32 1016.8
20260508174654 69 196 1.7 4.3 0.00 0.00 0.00 32 1016.8
20260508174150 68 148 0.9 2.6 0.00 0.00 0.00 34 1016.8
20260508173647 68 168 2.6 3.5 0.00 0.00 0.00 36 1016.8
20260508173143 68 119 0.9 2.6 0.00 0.00 0.00 34 1017.0
20260508172640 68 159 1.7 4.3 0.00 0.00 0.00 32 1017.0
20260508172137 68 151 1.7 2.6 0.00 0.00 0.00 35 1017.2
20260508171633 68 157 2.6 2.6 0.00 0.00 0.00 35 1017.1
20260508171130 68 123 1.7 2.6 0.00 0.00 0.00 37 1017.2
20260508170627 67 217 0.9 2.6 0.00 0.00 0.00 37 1017.4
20260508170125 67 174 0.9 4.3 0.00 0.00 0.00 31 1017.4
20260508165622 67 187 2.6 4.3 0.00 0.00 0.00 36 1017.5
20260508165118 66 153 2.6 4.3 0.00 0.00 0.00 38 1017.4
20260508164614 66 231 2.6 2.6 0.00 0.00 0.00 38 1017.7
20260508164112 66 141 1.7 2.6 0.00 0.00 0.00 38 1017.9
20260508163609 66 127 1.7 2.6 0.00 0.00 0.00 42 1017.8
20260508163106 65 43 1.7 2.6 0.00 0.00 0.00 40 1017.9
20260508162602 65 121 2.6 2.6 0.00 0.00 0.00 41 1017.8
20260508162100 66 154 0.9 1.7 0.00 0.00 0.00 39 1018.0
20260508161556 65 88 0.0 3.5 0.00 0.00 0.00 44 1018.3
20260508161054 65 235 1.7 2.6 0.00 0.00 0.00 41 1018.1
20260508160552 65 92 1.7 2.6 0.00 0.00 0.00 43 1018.1
20260508160049 64 165 1.7 2.6 0.00 0.00 0.00 41 1018.2
20260508155546 64 125 0.9 2.6 0.00 0.00 0.00 43 1018.2
20260508155043 64 140 0.9 3.5 0.00 0.00 0.00 44 1018.7
20260508154540 64 149 1.7 3.5 0.00 0.00 0.00 45 1018.5
20260508154037 64 136 2.6 2.6 0.00 0.00 0.00 43 1018.4
20260508153533 63 138 0.9 3.5 0.00 0.00 0.00 44 1018.5
20260508153030 64 243 1.7 3.5 0.00 0.00 0.00 40 1018.9
20260508152527 63 146 1.7 2.6 0.00 0.00 0.00 40 1018.7
20260508152022 62 146 2.6 3.5 0.00 0.00 0.00 42 1018.7
20260508151520 62 254 0.0 2.6 0.00 0.00 0.00 38 1018.8
20260508151016 62 146 1.7 2.6 0.00 0.00 0.00 39 1019.0
20260508150514 62 159 1.7 1.7 0.00 0.00 0.00 39 1018.9
20260508150009 62 143 0.0 0.9 0.00 0.00 0.00 35 1019.0
20260508145506 62 169 1.7 2.6 0.00 0.00 0.00 37 1019.1
20260508145002 62 139 2.6 2.6 0.00 0.00 0.00 37 1018.9
20260508144500 62 177 2.6 3.5 0.00 0.00 0.00 35 1019.1
20260508143957 62 187 1.7 2.6 0.00 0.00 0.00 38 1019.0
20260508143455 62 127 0.0 2.6 0.00 0.00 0.00 43 1019.0
20260508142951 62 169 1.7 2.6 0.00 0.00 0.00 43 1018.9
20260508142448 63 138 1.7 2.6 0.00 0.00 0.00 44 1018.9
20260508141944 63 143 1.7 2.6 0.00 0.00 0.00 46 1019.0
20260508141441 62 164 0.9 1.7 0.00 0.00 0.00 48 1019.0
20260508140939 62 145 2.6 2.6 0.00 0.00 0.00 47 1019.1
20260508140436 61 158 0.9 2.6 0.00 0.00 0.00 51 1018.9
20260508135931 59 196 0.9 1.7 0.00 0.00 0.00 57 1018.8
20260508135428 57 185 0.9 1.7 0.00 0.00 0.00 59 1018.9
20260508134925 57 142 1.7 2.6 0.00 0.00 0.00 65 1019.1
20260508134421 56 176 0.0 1.7 0.00 0.00 0.00 65 1019.0
20260508133918 56 184 1.7 2.6 0.00 0.00 0.00 73 1019.2
20260508133416 55 137 1.7 2.6 0.00 0.00 0.00 73 1019.1
20260508132912 55 128 1.7 2.6 0.00 0.00 0.00 81 1019.2
20260508132410 54 142 1.7 1.7 0.00 0.00 0.00 86 1019.0
20260508131907 53 140 1.7 1.7 0.00 0.00 0.00 91 1019.2
20260508131402 52 148 1.7 2.6 0.00 0.00 0.00 99 1019.0
20260508130859 52 150 1.7 1.7 0.00 0.00 0.00 99 1019.0
20260508130356 52 163 0.9 1.7 0.00 0.00 0.00 99 1018.9
20260508125852 51 152 1.7 1.7 0.00 0.00 0.00 99 1019.2
20260508125348 51 140 1.7 1.7 0.00 0.00 0.00 99 1019.1
20260508124846 51 150 1.7 1.7 0.00 0.00 0.00 99 1019.1
20260508124343 51 159 0.9 1.7 0.00 0.00 0.00 99 1019.1
20260508123841 50 148 1.7 1.7 0.00 0.00 0.00 99 1019.1
20260508123340 50 158 1.7 2.6 0.00 0.00 0.00 99 1018.8
20260508122836 50 151 1.7 2.6 0.00 0.00 0.00 99 1018.9
20260508122332 49 153 1.7 1.7 0.00 0.00 0.00 99 1019.1
20260508121830 49 160 1.7 1.7 0.00 0.00 0.00 99 1018.9
20260508121328 48 162 1.7 1.7 0.00 0.00 0.00 99 1018.8
20260508120826 47 161 0.9 1.7 0.00 0.00 0.00 99 1018.6
20260508120323 46 157 1.7 1.7 0.00 0.00 0.00 99 1018.6
20260508115820 46 157 1.7 1.7 0.00 0.00 0.00 99 1018.6
20260508115318 46 151 1.7 1.7 0.00 0.00 0.00 99 1018.5
20260508114814 45 168 1.7 1.7 0.00 0.00 0.00 99 1018.4
20260508114311 44 172 1.7 2.6 0.00 0.00 0.00 99 1018.2
20260508113808 43 149 1.7 1.7 0.00 0.00 0.00 99 1018.3
20260508113306 42 156 1.7 1.7 0.00 0.00 0.00 99 1018.2
20260508112802 42 152 1.7 1.7 0.00 0.00 0.00 99 1018.3
20260508112259 42 155 1.7 1.7 0.00 0.00 0.00 99 1018.2
20260508111755 42 157 1.7 1.7 0.00 0.00 0.00 99 1018.0
20260508111254 41 144 1.7 1.7 0.00 0.00 0.00 99 1018.0
20260508110750 41 140 1.7 1.7 0.00 0.00 0.00 99 1017.6
20260508110248 41 154 1.7 1.7 0.00 0.00 0.00 99 1017.7
20260508105742 41 145 1.7 2.6 0.00 0.00 0.00 99 1017.7
20260508105238 41 158 1.7 1.7 0.00 0.00 0.00 99 1017.6
20260508104736 41 141 1.7 1.7 0.00 0.00 0.00 99 1017.5
20260508104233 41 150 1.7 2.6 0.00 0.00 0.00 99 1017.5
20260508103730 41 154 1.7 2.6 0.00 0.00 0.00 99 1017.3
20260508103227 42 148 1.7 1.7 0.00 0.00 0.00 99 1017.4
20260508102724 42 156 1.7 1.7 0.00 0.00 0.00 99 1017.2
20260508102222 42 151 1.7 1.7 0.00 0.00 0.00 99 1017.3
20260508101719 42 141 1.7 1.7 0.00 0.00 0.00 99 1017.3
20260508101216 42 141 1.7 2.6 0.00 0.00 0.00 99 1017.0
20260508100714 43 148 1.7 1.7 0.00 0.00 0.00 99 1017.1
20260508100212 43 148 1.7 1.7 0.00 0.00 0.00 99 1017.0
20260508095708 43 148 1.7 1.7 0.00 0.00 0.00 99 1017.0
20260508095206 43 131 1.7 1.7 0.00 0.00 0.00 99 1016.8
20260508094702 43 151 1.7 2.6 0.00 0.00 0.00 99 1016.9
20260508094159 43 158 1.7 1.7 0.00 0.00 0.00 99 1016.9
20260508093656 44 152 1.7 2.6 0.00 0.00 0.00 99 1016.9
20260508093154 44 156 0.9 2.6 0.00 0.00 0.00 99 1016.7
20260508092651 44 145 1.7 2.6 0.00 0.00 0.00 99 1016.7
20260508092149 44 149 1.7 2.6 0.00 0.00 0.00 99 1016.4
20260508091646 44 140 1.7 2.6 0.00 0.00 0.00 99 1016.4
20260508091143 43 143 1.7 2.6 0.00 0.00 0.00 99 1016.4
20260508090641 43 154 1.7 1.7 0.00 0.00 0.00 99 1016.3
20260508090138 43 150 1.7 1.7 0.00 0.00 0.00 99 1016.4
20260508085634 43 150 1.7 1.7 0.00 0.00 0.00 99 1016.5
20260508085132 43 146 1.7 2.6 0.00 0.00 0.00 99 1016.0
20260508084628 42 136 1.7 2.6 0.00 0.00 0.00 99 1016.2
20260508084125 42 136 1.7 2.6 0.00 0.00 0.00 99 1016.2
20260508083622 42 150 1.7 1.7 0.00 0.00 0.00 99 1016.1
20260508083119 41 172 1.7 1.7 0.00 0.00 0.00 99 1016.1
20260508082615 41 149 1.7 2.6 0.00 0.00 0.00 99 1016.0
20260508082112 42 165 2.6 2.6 0.00 0.00 0.00 99 1015.9
20260508081610 42 152 1.7 2.6 0.00 0.00 0.00 99 1015.7
20260508081106 42 143 2.6 2.6 0.00 0.00 0.00 99 1015.6
20260508080604 42 144 1.7 2.6 0.00 0.00 0.00 99 1015.6
20260508075557 43 151 1.7 1.7 0.00 0.00 0.00 99 1015.7
20260508075055 43 156 1.7 1.7 0.00 0.00 0.00 99 1015.6
20260508074553 43 148 1.7 1.7 0.00 0.00 0.00 99 1015.7
20260508074049 43 139 1.7 1.7 0.00 0.00 0.00 99 1015.5
20260508073546 43 147 1.7 1.7 0.00 0.00 0.00 99 1015.6
20260508073044 43 145 1.7 1.7 0.00 0.00 0.00 99 1015.6
20260508072539 43 146 1.7 1.7 0.00 0.00 0.00 99 1015.6
20260508072037 43 135 1.7 1.7 0.00 0.00 0.00 99 1015.5
20260508071535 43 139 0.9 1.7 0.00 0.00 0.00 99 1015.4
20260508071032 43 134 1.7 1.7 0.00 0.00 0.00 99 1015.3
20260508070530 43 139 1.7 2.6 0.00 0.00 0.00 99 1015.4
20260508070028 44 145 1.7 1.7 0.00 0.00 0.00 99 1015.2
20260508065525 44 156 1.7 2.6 0.00 0.00 0.00 99 1015.2
20260508065023 44 144 1.7 1.7 0.00 0.00 0.00 99 1015.3
20260508064520 44 149 2.6 2.6 0.00 0.00 0.00 99 1015.4
20260508064018 44 153 1.7 1.7 0.00 0.00 0.00 99 1015.2
20260508063515 44 152 1.7 2.6 0.00 0.00 0.00 99 1015.3
20260508063013 44 159 1.7 1.7 0.00 0.00 0.00 99 1015.2
20260508062510 45 154 1.7 1.7 0.00 0.00 0.00 99 1015.0
20260508062007 45 156 1.7 1.7 0.00 0.00 0.00 99 1015.1
20260508061505 45 148 1.7 1.7 0.00 0.00 0.00 99 1015.0
20260508061002 46 151 1.7 1.7 0.00 0.00 0.00 99 1015.0
20260508060459 46 161 1.7 1.7 0.00 0.00 0.00 99 1014.8
20260508055954 46 135 1.7 1.7 0.00 0.00 0.00 99 1015.0
20260508055451 46 136 1.7 1.7 0.00 0.00 0.00 99 1015.0
20260508054948 46 145 1.7 1.7 0.00 0.00 0.00 99 1014.9
20260508054445 46 161 1.7 1.7 0.00 0.00 0.00 99 1014.9
20260508053942 46 146 1.7 1.7 0.00 0.00 0.00 99 1014.7
20260508053439 46 152 1.7 1.7 0.00 0.00 0.00 99 1014.6
20260508052937 46 145 1.7 1.7 0.00 0.00 0.00 99 1014.9
20260508052434 46 138 0.9 1.7 0.00 0.00 0.00 99 1014.7
20260508051930 46 149 1.7 1.7 0.00 0.00 0.00 99 1014.5
20260508051426 46 151 1.7 1.7 0.00 0.00 0.00 99 1014.9
20260508050922 47 147 1.7 2.6 0.00 0.00 0.00 99 1014.8
20260508050419 47 144 1.7 1.7 0.00 0.00 0.00 99 1014.6
20260508045915 47 141 1.7 1.7 0.00 0.00 0.00 99 1014.9
20260508045413 47 138 0.9 1.7 0.00 0.00 0.00 99 1014.6